When you browse on this site, cookies collect data to enhance your experience and personalize the content and advertising you see.
Visit our Privacy Policy to learn more. By continuing to use the site, you agree to this use of cookies and data.
  • In United Kingdom
  • List of Countries
  • For 7 days
  • Water Temperature
  • Satellite Maps
  • Weather Map
  • Weather Widgets
  • user-avatar
    Login

    Hourly Weather Nottingham

    Today, 25 June, Tuesday

    Time Temperature Precipitation Wind Pressure Humidity
    00:00 +17°C° 0 mm 0 mps 758 mmHg 91%
    01:00 +19°C° 0.2 mm 1 mps 758 mmHg 92%
    02:00 +17°C° 0.2 mm 2 mps 758 mmHg 94%
    03:00 +17°C° 0.2 mm 3 mps 757 mmHg 95%
    04:00 +17°C° 0.2 mm 3 mps 757 mmHg 95%
    05:00 +15°C° 0.2 mm 4 mps 758 mmHg 95%
    06:00 +15°C° 0.2 mm 5 mps 758 mmHg 95%
    07:00 +15°C° 1.4 mm 4 mps 758 mmHg 95%
    08:00 +15°C° 1.4 mm 4 mps 758 mmHg 96%
    09:00 +15°C° 1.4 mm 4 mps 759 mmHg 96%
    10:00 +15°C° 0.3 mm 4 mps 759 mmHg 95%
    11:00 +17°C° 0.3 mm 4 mps 759 mmHg 94%
    12:00 +17°C° 0.3 mm 3 mps 759 mmHg 93%
    13:00 +17°C° 0.1 mm 4 mps 759 mmHg 93%
    14:00 +17°C° 0.1 mm 4 mps 760 mmHg 93%
    15:00 +17°C° 0.1 mm 4 mps 760 mmHg 93%
    16:00 +17°C° 0 mm 4 mps 760 mmHg 93%
    17:00 +15°C° 0 mm 4 mps 761 mmHg 92%
    18:00 +15°C° 0 mm 4 mps 761 mmHg 92%
    19:00 +15°C° 0 mm 4 mps 762 mmHg 92%
    20:00 +14°C° 0 mm 4 mps 762 mmHg 93%
    21:00 +14°C° 0 mm 4 mps 763 mmHg 93%
    22:00 +14°C° 0 mm 4 mps 763 mmHg 93%
    23:00 +14°C° 0 mm 4 mps 764 mmHg 92%

    Tomorrow, 26 June, Wednesday

    Time Temperature Precipitation Wind Pressure Humidity
    00:00 +14°C° 0 mm 4 mps 764 mmHg 92%
    01:00 +13°C° 0 mm 4 mps 764 mmHg 91%
    02:00 +13°C° 0 mm 4 mps 764 mmHg 91%
    03:00 +13°C° 0 mm 4 mps 764 mmHg 90%
    04:00 +13°C° 0 mm 4 mps 765 mmHg 90%
    05:00 +13°C° 0 mm 5 mps 765 mmHg 89%
    06:00 +13°C° 0 mm 5 mps 766 mmHg 88%
    07:00 +13°C° 0 mm 5 mps 766 mmHg 87%
    08:00 +14°C° 0 mm 5 mps 766 mmHg 86%
    09:00 +14°C° 0 mm 5 mps 766 mmHg 84%
    10:00 +14°C° 0 mm 5 mps 767 mmHg 83%
    11:00 +15°C° 0 mm 4 mps 767 mmHg 82%
    12:00 +15°C° 0 mm 4 mps 767 mmHg 81%
    13:00 +17°C° 0 mm 4 mps 767 mmHg 80%
    14:00 +16°C° 0 mm 5 mps 767 mmHg 80%
    15:00 +17°C° 0 mm 5 mps 767 mmHg 79%
    16:00 +16°C° 0 mm 5 mps 767 mmHg 79%
    17:00 +16°C° 0 mm 5 mps 767 mmHg 80%
    18:00 +15°C° 0 mm 5 mps 767 mmHg 81%
    19:00 +14°C° 0 mm 5 mps 767 mmHg 84%
    20:00 +12°C° 0 mm 4 mps 767 mmHg 86%
    21:00 +11°C° 0 mm 4 mps 768 mmHg 89%
    22:00 +10°C° 0 mm 4 mps 768 mmHg 90%
    23:00 +10°C° 0 mm 3 mps 768 mmHg 91%

    Day after tomorrow, 27 June, Thursday

    Time Temperature Precipitation Wind Pressure Humidity
    00:00 +9°C° 0 mm 3 mps 768 mmHg 92%
    01:00 +9°C° 0 mm 3 mps 768 mmHg 93%
    02:00 +9°C° 0 mm 3 mps 768 mmHg 93%
    03:00 +8°C° 0 mm 3 mps 767 mmHg 93%
    04:00 +9°C° 0 mm 3 mps 767 mmHg 90%
    05:00 +10°C° 0 mm 3 mps 767 mmHg 88%
    06:00 +11°C° 0 mm 4 mps 767 mmHg 85%
    07:00 +12°C° 0 mm 4 mps 767 mmHg 82%
    08:00 +14°C° 0 mm 4 mps 768 mmHg 78%
    09:00 +17°C° 0 mm 4 mps 768 mmHg 75%
    10:00 +17°C° 0 mm 5 mps 768 mmHg 74%
    11:00 +19°C° 0 mm 5 mps 767 mmHg 73%
    12:00 +20°C° 0 mm 5 mps 767 mmHg 72%
    13:00 +20°C° 0 mm 5 mps 767 mmHg 71%
    14:00 +20°C° 0 mm 5 mps 767 mmHg 71%
    15:00 +21°C° 0 mm 5 mps 767 mmHg 71%
    16:00 +20°C° 0 mm 5 mps 766 mmHg 73%
    17:00 +19°C° 0 mm 5 mps 766 mmHg 75%
    18:00 +17°C° 0 mm 5 mps 766 mmHg 77%
    19:00 +15°C° 0 mm 5 mps 766 mmHg 82%
    20:00 +14°C° 0 mm 5 mps 766 mmHg 87%
    21:00 +12°C° 0 mm 4 mps 766 mmHg 91%
    22:00 +11°C° 0 mm 4 mps 766 mmHg 93%
    23:00 +11°C° 0 mm 4 mps 766 mmHg 94%

    28 June, Friday

    Time Temperature Precipitation Wind Pressure Humidity
    00:00 +10°C° 0 mm 4 mps 766 mmHg 96%
    01:00 +10°C° 0 mm 3 mps 765 mmHg 96%
    02:00 +10°C° 0 mm 3 mps 765 mmHg 97%
    03:00 +10°C° 0 mm 3 mps 765 mmHg 97%
    04:00 +10°C° 0 mm 4 mps 765 mmHg 96%
    05:00 +11°C° 0 mm 4 mps 764 mmHg 95%
    06:00 +12°C° 0 mm 5 mps 764 mmHg 94%
    07:00 +13°C° 0 mm 5 mps 764 mmHg 90%
    08:00 +15°C° 0 mm 4 mps 764 mmHg 86%
    09:00 +17°C° 0 mm 4 mps 764 mmHg 82%
    10:00 +17°C° 0 mm 5 mps 763 mmHg 79%
    11:00 +20°C° 0 mm 5 mps 763 mmHg 76%
    12:00 +21°C° 0 mm 5 mps 763 mmHg 73%
    13:00 +22°C° 0 mm 5 mps 762 mmHg 73%
    14:00 +22°C° 0 mm 5 mps 762 mmHg 73%
    15:00 +22°C° 0 mm 5 mps 762 mmHg 73%
    16:00 +22°C° 0 mm 5 mps 761 mmHg 75%
    17:00 +21°C° 0 mm 5 mps 761 mmHg 76%
    18:00 +21°C° 0 mm 5 mps 761 mmHg 78%
    19:00 +19°C° 0 mm 5 mps 760 mmHg 81%
    20:00 +17°C° 0 mm 4 mps 760 mmHg 84%
    21:00 +15°C° 0 mm 4 mps 760 mmHg 87%
    22:00 +14°C° 0 mm 3 mps 760 mmHg 87%
    23:00 +13°C° 0 mm 3 mps 760 mmHg 87%

    29 June, Saturday

    Time Temperature Precipitation Wind Pressure Humidity
    00:00 +13°C° 0 mm 2 mps 759 mmHg 87%
    01:00 +13°C° 0 mm 2 mps 759 mmHg 88%
    02:00 +13°C° 0 mm 2 mps 759 mmHg 89%
    03:00 +12°C° 0 mm 1 mps 758 mmHg 90%
    04:00 +13°C° 0 mm 2 mps 758 mmHg 89%
    05:00 +14°C° 0 mm 2 mps 757 mmHg 89%
    06:00 +15°C° 0 mm 2 mps 757 mmHg 88%
    07:00 +17°C° 0 mm 3 mps 757 mmHg 85%
    08:00 +19°C° 0 mm 3 mps 756 mmHg 82%
    09:00 +21°C° 0 mm 3 mps 756 mmHg 79%
    10:00 +22°C° 0 mm 4 mps 756 mmHg 78%
    11:00 +23°C° 0 mm 4 mps 755 mmHg 76%
    12:00 +26°C° 0 mm 4 mps 755 mmHg 74%
    13:00 +26°C° 0 mm 4 mps 754 mmHg 76%
    14:00 +26°C° 0 mm 4 mps 754 mmHg 77%
    15:00 +25°C° 0 mm 4 mps 754 mmHg 79%
    16:00 +23°C° 0 mm 4 mps 754 mmHg 82%
    17:00 +22°C° 0 mm 4 mps 753 mmHg 85%
    18:00 +21°C° 0 mm 3 mps 753 mmHg 88%
    19:00 +19°C° 0 mm 4 mps 753 mmHg 84%
    20:00 +18°C° 0 mm 4 mps 753 mmHg 81%
    21:00 +17°C° 0 mm 4 mps 754 mmHg 78%
    22:00 +15°C° 0 mm 4 mps 754 mmHg 82%
    23:00 +14°C° 0 mm 4 mps 754 mmHg 86%

    30 June, Sunday

    Time Temperature Precipitation Wind Pressure Humidity
    00:00 +13°C° 0 mm 4 mps 754 mmHg 90%
    01:00 +13°C° 0 mm 4 mps 754 mmHg 91%
    02:00 +12°C° 0 mm 4 mps 754 mmHg 92%
    03:00 +12°C° 0 mm 4 mps 754 mmHg 94%
    04:00 +13°C° 0 mm 4 mps 754 mmHg 92%
    05:00 +14°C° 0 mm 4 mps 754 mmHg 89%
    06:00 +14°C° 0 mm 5 mps 755 mmHg 87%
    07:00 +15°C° 0 mm 5 mps 755 mmHg 83%
    08:00 +17°C° 0 mm 5 mps 755 mmHg 79%
    09:00 +19°C° 0 mm 6 mps 755 mmHg 76%
    10:00 +20°C° 0 mm 6 mps 755 mmHg 72%
    11:00 +21°C° 0 mm 6 mps 755 mmHg 69%
    12:00 +21°C° 0 mm 7 mps 755 mmHg 66%
    13:00 +21°C° 0.1 mm 7 mps 755 mmHg 66%
    14:00 +21°C° 0.1 mm 7 mps 755 mmHg 67%
    15:00 +21°C° 0.1 mm 6 mps 755 mmHg 67%
    16:00 +21°C° 0.1 mm 6 mps 755 mmHg 70%
    17:00 +20°C° 0.1 mm 5 mps 755 mmHg 72%
    18:00 +19°C° 0.1 mm 4 mps 755 mmHg 75%
    19:00 +18°C° 0 mm 4 mps 756 mmHg 76%
    20:00 +17°C° 0 mm 3 mps 756 mmHg 78%
    21:00 +16°C° 0 mm 3 mps 757 mmHg 79%
    22:00 +14°C° 0 mm 3 mps 757 mmHg 81%
    23:00 +13°C° 0 mm 3 mps 757 mmHg 84%
    Show more